Cloud_Cover
78 62 94 5 5 5 44 52 18 100 14 2 92 100 100 100 100 100 7 0 3 0 0 2 3 66 100 100 100 99 53 5 5 5 45 100 100 100 100 100 100 100 38 17
5 51 100 27 7 5 67 5 67 80 14 5 33 100 100 100 100 100 15 1 0 0 0 0 2 0 5 76 100 98 100 95 48 23 38 51 72 100 100 100 100 100 92 66
60 77 100 83 28 96 5 56 36 5 26 18 6 97 100 100 100 100 100 74 2 1 0 1 0 2 1 5 30 87 73 93 17 6 28 57 97 96 92 100 100 100 100 71
96 90 39 8 78 90 94 87 26 95 24 72 71 42 100 100 100 100 100 100 100 71 27 1 5 0 5 3 4 6 45 89 99 96 57 51 53 24 51 100 100 100 100 98
80 39 75 96 100 100 100 100 100 88 30 10 69 18 100 100 100 100 100 100 100 100 100 53 6 4 1 4 5 0 5 10 62 10 46 73 100 100 100 100 100 100 100 100
100 98 100 100 100 97 80 67 96 87 55 5 5 5 5 85 96 98 100 100 100 100 100 100 57 5 5 5 1 4 0 7 9 43 73 100 100 100 100 100 100 100 100 100
100 100 100 97 41 16 5 15 6 5 34 5 9 4 5 8 63 90 100 100 100 100 100 100 100 100 84 7 0 2 0 11 64 100 100 100 100 100 100 100 100 100 100 100
97 100 100 20 100 99 7 16 37 44 5 5 5 5 5 10 99 96 97 92 35 100 100 100 100 100 100 100 90 5 2 1 74 100 100 100 100 100 100 100 100 100 100 100
5 12 100 100 8 69 100 97 86 100 47 42 74 30 5 5 22 95 97 100 100 100 100 100 100 100 100 100 100 100 95 8 54 100 100 100 100 100 100 100 100 100 100 100
82 40 6 6 29 91 97 90 96 81 96 70 58 60 80 5 6 54 95 100 100 100 100 100 100 100 100 100 100 100 100 100 97 99 100 100 100 100 100 100 100 100 100 100
96 61 6 38 100 88 90 89 100 100 100 91 46 16 6 50 5 5 66 82 100 100 100 100 100 100 100 100 100 100 100 100 100 100 100 100 100 100 100 100 100 100 100 100
20 15 87 5 5 21 99 100 100 100 100 96 97 19 18 8 96 89 99 100 100 100 100 100 100 100 100 100 100 100 100 100 100 100 100 100 100 100 100 100 100 100 100 100
12 84 100 82 74 100 100 100 100 100 100 100 100 49 71 100 86 90 72 80 59 96 100 100 100 100 100 100 100 100 100 100 100 100 100 100 100 100 100 100 100 100 100 100
100 100 91 62 97 100 41 53 100 100 100 94 84 61 94 67 59 88 94 97 70 46 26 46 94 100 100 99 100 100 100 100 100 100 100 100 100 100 100 100 100 100 100 100
100 100 53 41 90 100 100 68 100 100 95 95 17 7 97 93 79 78 5 40 17 79 92 5 5 5 14 66 96 99 93 100 94 100 100 100 100 100 100 100 100 100 100 100
100 100 100 99 73 95 83 28 100 100 32 95 99 100 100 100 7 63 6 86 74 100 100 100 63 18 57 71 99 100 100 100 100 100 100 100 100 100 100 100 100 100 100 100
100 100 100 97 96 100 100 48 11 66 100 94 99 90 20 70 62 94 90 100 100 100 100 100 100 100 91 87 100 100 100 100 100 100 100 100 100 100 100 100 100 100 100 100
100 100 100 92 100 100 57 81 42 98 100 100 100 90 65 48 22 29 96 100 100 100 100 99 98 87 81 90 100 100 100 100 100 100 100 100 100 100 100 100 100 100 100 100
100 100 100 100 99 74 100 99 100 100 100 100 100 94 62 98 84 97 43 100 100 100 99 100 100 87 100 90 100 100 100 100 100 100 100 100 100 100 100 100 100 100 100 100
100 100 100 100 100 100 86 100 100 100 100 100 100 100 100 99 100 36 34 59 76 72 91 94 100 100 100 100 100 100 100 100 100 100 100 100 100 100 100 100 100 100 100 100
100 100 100 100 100 100 100 97 100 100 77 100 100 100 100 100 100 45 53 26 57 98 99 96 95 100 100 100 100 100 100 100 100 100 100 100 100 100 100 100 100 100 100 100
100 100 100 100 100 100 100 100 100 100 100 100 100 100 100 84 60 42 60 63 100 99 100 100 100 100 100 100 100 100 100 100 100 100 100 100 100 100 100 100 100 100 100 100
100 100 100 100 100 100 100 100 100 100 100 100 100 100 100 92 93 93 92 80 83 100 90 100 100 100 100 100 100 100 100 100 100 100 100 100 100 100 100 100 100 100 100 100
100 100 100 100 100 100 100 100 100 100 100 100 100 100 100 100 100 85 99 99 86 100 100 100 100 100 100 100 100 100 100 100 100 100 100 100 100 100 100 100 100 100 100 100
100 100 100 100 100 100 100 100 100 100 100 100 100 100 100 100 100 100 100 100 100 99 92 94 100 100 100 100 100 100 100 100 100 100 100 100 100 100 100 100 100 100 100 100
100 100 100 100 100 100 100 100 100 100 100 100 100 100 100 100 100 100 100 100 100 99 99 100 100 100 99 100 100 100 100 100 100 100 100 100 100 100 100 100 100 100 100 100